Location: Zagreb
(45.8000°N, 16.0000°E)
Time: 07:44:35
(UTC+02:00)

Courier 1B - Pass Details

Date: 15 August 2020
Orbit: 962 x 1209 km, 28.3° (Epoch: 27 September)

Event Time Altitude Azimuth Distance (km) Brightness Sun altitude
Rises 22:08:29 0° 248° (WSW) 3,936 11.0 -19.0°
Reaches altitude 10° 22:15:04 10° 206° (SSW) 2,886 9.8 -19.8°
Maximum altitude 22:15:31 10° 203° (SSW) 2,875 9.7 -19.9°
Drops below altitude 10° 22:15:57 10° 199° (SSW) 2,874 9.7 -19.9°
Enters shadow 22:16:31 10° 194° (SSW) 2,886 9.7 -20.0°
Sets 22:22:16 0° 156° (SSE) 3,741 - -20.7°
